Regional Weather Roundup
Issued by NWS Green Bay, WI

Home | Current Version | Previous Version | Graphics & Text | Print | Product List | Glossary Off
Versions: 1 2 3 4 5 6 7 8 9 10 11 12 13 14 15 16 17 18 19 20 21 22 23 24 25 26 27 28 29 30 31 32 33 34 35 36 37 38 39 40 41 42 43 44 45 46 47 48 49 50

000
ASUS43 KGRB 211810
RWRGRB

NORTH-CENTRAL AND NORTHEAST WISCONSIN REGIONAL WEATHER ROUNDUP
NATIONAL WEATHER SERVICE GREEN BAY WI
1200 PM CST SUN DEC 21 2014

WIZ005-009-010>012-018-019-211900-
NORTH CENTRAL WISCONSIN

CITY           SKY/WX    TMP DP  RH WIND       PRES   REMARKS
IRONWOOD       CLOUDY    34  28  80 S8        29.87F
MANITOWISH WTR CLOUDY    30  30 100 S14       29.91F FOG
ARBOR VITAE    LGT SNOW  32  30  92 S10G18    29.92F
EAGLE RIVER    CLOUDY    30  29  98 S7        29.94F FOG
LAND O LAKES   CLOUDY    31  29  94 S7        29.94F FOG
RHINELANDER    CLOUDY    29  28  96 S9        29.95F FOG
PHILLIPS       LGT SNOW  30  29  96 S13       29.90F
ANTIGO         FOG       29  29 100 SE10      29.97F VSB 1/2
TOMAHAWK       CLOUDY    30  29  94 CALM      29.94F FOG
MERRILL        LGT SNOW  31  31  98 S6        29.96F
$$

WIZ013-073-211900-
NORTHEAST WISCONSIN

CITY           SKY/WX    TMP DP  RH WIND       PRES   REMARKS
IRON MOUNTAIN  CLOUDY    29  27  92 S9        30.01F FOG
MARINETTE      CLOUDY    34  30  86 S9        30.06F
OCONTO         CLOUDY    33  32  95 S6        30.06F
$$

WIZ017-030-035>037-045-211900-
CENTRAL WISCONSIN

CITY           SKY/WX    TMP DP  RH WIND       PRES   REMARKS
MEDFORD        FOG       30  30  99 SE13G18   29.93F VSB 1/4
WAUSAU         CLOUDY    31  30  96 S8        29.96F FOG
MOSINEE        FOG       32  32 100 SE13      29.98F VSB 1
MARSHFIELD     SNOW      33  31  92 S12       29.95F VSB 1/4
WISC RAPIDS    CLOUDY    34  31  88 S9        29.99F FOG
STEVENS POINT  FOG       31  31  99 S9        30.00F VSB 3/4
WAUPACA        CLOUDY    36  32  88 S8        30.04F FOG
SHAWANO        CLOUDY    35  32  88 S6        30.05F FOG
CLINTONVILLE   CLOUDY    32  32 100 S9        30.04F FOG
$$

WIZ038-039-048-051-211900-
FOX VALLEY

CITY           SKY/WX    TMP DP  RH WIND       PRES   REMARKS
NWS GREEN BAY  CLOUDY    34  31  88 S10       30.07F FOG
APPLETON       CLOUDY    34  32  93 S12       30.06F FOG
OSHKOSH        CLOUDY    35  31  85 S9        30.06F FOG
FOND DU LAC    CLOUDY    35  31  85 S12       30.06F
$$

WIZ022-050-052-211900-
EAST CENTRAL WISCONSIN

CITY           SKY/WX    TMP DP  RH WIND       PRES   REMARKS
STURGEON BAY   CLOUDY    36  30  80 S12       30.09F
MANITOWOC      CLOUDY    37  33  85 S13       30.10F
SHEBOYGAN      CLOUDY    35  30  82 S12       30.09F
$$

LMZ563-521-522-541>543-211900-
LAKESHORE

STATION/POSITION TIME  TEMP    WIND        PRES    VSBY  WAVE
                       AIR SEA DIR/SP/G                  HT/PER
                 (UTC) (F)     (DEG/KT/KT) (MB)    (MI)  (FT/S)
SHEBOYGAN LKSHOR 1800   36 34  180/ 15/ 18 1019.9F
KEWAUNEE LKSHORE 1800   36     190/ 12/ 17 1018.3F
ALGOMA MARINA    1800          240/ 19/ 22   N/A
TWO RIVERS CG    1700   36 36              1019.9      6   2
NORTHPORT PIER   1800   36     160/  8/ 15 1019.0F
SISTER BAY LKSHO 1800          190/ 13/ 16   N/A
CHAMBERS ISLAND  1800   36     140/  4/  9 1018.6F
MENOMINEE LKSHOR 1800   34     170/  8/ 11 1018.9F
$$


USA.gov is the U.S. government's official web portal to all federal, state and local government web resources and services.